[[{"header":{"parameterUnit":"m.s-1","parameterCategory":1,"la1":30.2991,"la2":30.254,"lo1":-89.0895,"lo2":-89.0444,"dy":0.0017,"dx":0.0017,"nx":28,"ny":28,"refTime":"2024-03-06T03:00:00:Z","depth":0,"parameterNumber":2,"parameterNumberName":"U-component_of_WINDS"},"data":[0,0,0,0,0,0,0,0,0,0,0,0,0,0,0,0,0,0,0,0,0,0,0,0,0,0,0,0,0,0,0,0,0,0,0,0,0,0,0,0,0,0,0,0,0,0,0,0,0,0,0,0,0,0,0,0,0,0,-2.5551,-2.5551,0,-2.55,-2.5499,-2.5499,-2.5459,-2.5458,-2.5458,-2.5458,-2.5404,-2.5403,-2.5401,0,0,0,0,0,0,0,0,0,0,0,0,0,-2.5616,-2.5615,-2.5551,-2.5551,-2.555,-2.55,-2.5499,-2.5498,-2.5459,-2.5458,-2.5458,-2.5458,-2.5404,-2.5403,-2.5401,0,0,0,0,0,0,0,0,0,0,0,0,0,-2.5579,-2.5615,-2.5551,-2.5524,-2.5521,-2.55,-2.5499,-2.5498,-2.5459,-2.5458,-2.5458,-2.5457,-2.5404,-2.5403,-2.5401,-2.5402,0,0,-2.5396,-2.5395,0,0,0,0,0,0,0,0,-2.5581,-2.5576,-2.5529,-2.5526,-2.5523,-2.5485,-2.5502,-2.5466,-2.5459,-2.5483,-2.5458,-2.5457,-2.5431,-2.5427,-2.5419,-2.54,-2.5397,-2.5396,-2.5395,-2.5394,-2.5394,0,0,0,0,0,0,0,-2.5583,-2.5578,-2.5531,-2.5528,-2.5524,-2.5515,-2.5509,-2.5495,-2.5461,-2.548,-2.5477,-2.5472,-2.5429,-2.542,-2.5417,-2.5397,-2.5396,-2.5395,-2.5394,-2.5393,-2.5379,-2.538,0,0,0,0,0,0,-2.559,-2.5581,-2.5532,-2.5529,-2.5551,-2.5514,-2.5508,-2.5498,-2.5461,-2.5454,-2.5473,-2.547,-2.5424,-2.5419,-2.5415,-2.5415,-2.5394,-2.5393,-2.5392,-2.5378,-2.5379,-2.538,0,0,0,0,0,0,-2.5592,-2.5586,-2.5534,-2.5554,-2.5547,-2.5514,-2.5503,-2.5497,-2.5488,-2.5455,-2.5448,-2.547,-2.5423,-2.5417,-2.5407,-2.5413,-2.5392,-2.5391,-2.5378,-2.5379,-2.538,-2.5414,0,0,0,0,0,0,-2.5594,-2.5587,-2.5587,-2.5555,-2.5546,-2.5526,-2.5503,-2.5496,-2.5486,-2.5482,-2.545,-2.5444,-2.5422,-2.5409,-2.5405,-2.541,-2.5389,-2.5377,-2.5378,-2.5379,-2.5412,-2.5416,-2.542,0,0,0,0,0,-2.5596,-2.5597,-2.5587,-2.5581,-2.5545,-2.5527,-2.5522,-2.5496,-2.5486,-2.5486,-2.5465,-2.5445,-2.5413,-2.5408,-2.5403,-2.5408,-2.5376,-2.5378,-2.5379,-2.5411,-2.5416,-2.542,0,0,0,0,0,0,-2.5629,-2.5593,-2.558,-2.5571,-2.5553,-2.552,-2.5518,-2.5502,-2.5485,-2.5482,-2.5452,-2.5445,-2.5438,-2.5422,-2.5417,-2.5409,-2.5393,-2.5393,-2.5418,-2.5423,-2.5426,-2.5429,-2.5388,0,0,0,0,0,-2.5636,-2.5625,-2.5593,-2.5588,-2.558,-2.5551,-2.5542,-2.5525,-2.5504,-2.5495,-2.5473,-2.5454,-2.544,-2.5431,-2.5416,-2.5411,-2.5404,-2.5412,-2.5416,-2.5419,-2.5419,-2.5418,-2.5421,-2.5384,-2.5384,-2.5384,0,0,-2.5648,-2.5627,-2.5621,-2.5594,-2.5578,-2.5567,-2.5544,-2.5533,-2.5525,-2.5493,-2.5482,-2.5466,-2.5442,-2.5435,-2.5431,-2.5422,-2.5428,-2.5421,-2.5424,-2.5422,-2.5419,-2.5423,-2.5426,-2.5385,-2.5385,-2.5385,0,0,-2.5666,-2.5648,-2.5643,-2.5628,-2.5604,-2.5586,-2.5585,-2.5556,-2.5544,-2.5533,-2.551,-2.5501,-2.5476,-2.5461,-2.545,-2.5467,-2.5449,-2.5463,-2.5481,-2.548,-2.5483,-2.5485,-2.5491,-2.5494,-2.5464,-2.5464,-2.5464,0,-2.5684,-2.5667,-2.5642,-2.5633,-2.5623,-2.5596,-2.5591,-2.5578,-2.555,-2.5544,-2.5535,-2.5506,-2.5488,-2.5478,-2.5482,-2.5474,-2.5473,-2.5465,-2.5484,-2.5486,-2.5488,-2.5494,-2.5496,-2.5466,-2.5465,-2.5465,-2.5465,0,-2.5691,-2.568,-2.5678,-2.5654,-2.5644,-2.5637,-2.5612,-2.5605,-2.559,-2.5573,-2.5563,-2.5542,-2.5523,-2.552,-2.5504,-2.5508,-2.5503,-2.549,-2.5473,-2.5494,-2.5499,-2.5501,-2.5468,-2.5468,-2.5467,-2.5467,0,0,-2.5723,-2.5689,-2.5689,-2.5678,-2.5652,-2.5643,-2.5637,-2.562,-2.5614,-2.5598,-2.5591,-2.5574,-2.5562,-2.555,-2.5533,-2.5532,-2.5548,-2.5519,-2.5518,-2.5525,-2.5553,-2.5562,-2.5565,-2.5538,-2.5538,-2.5538,-2.5555,0,-2.5736,-2.5722,-2.5702,-2.5695,-2.5685,-2.5662,-2.5657,-2.5641,-2.5626,-2.5616,-2.56,-2.5588,-2.5573,-2.5566,-2.5565,-2.5547,-2.5553,-2.5545,-2.5531,-2.5531,-2.5536,-2.5567,-2.5576,-2.5593,-2.5556,-2.5557,-2.5557,0,-2.5747,-2.5734,-2.5726,-2.5704,-2.5699,-2.5694,-2.5679,-2.5669,-2.5652,-2.5641,-2.563,-2.5613,-2.5606,-2.5593,-2.5583,-2.5578,-2.5572,-2.5563,-2.5563,-2.5559,-2.5544,-2.5564,-2.5598,-2.56,-2.556,-2.5559,-2.5559,0,-2.5772,-2.5752,-2.5745,-2.5737,-2.5711,-2.5709,-2.5698,-2.568,-2.5672,-2.5658,-2.5653,-2.5639,-2.5631,-2.5621,-2.5601,-2.5593,-2.5594,-2.5578,-2.5585,-2.5586,-2.5584,-2.5584,-2.5617,-2.5583,-2.5583,-2.5583,-2.5583,0,-2.5787,-2.5784,-2.5756,-2.5752,-2.5748,-2.5727,-2.5723,-2.571,-2.5695,-2.5689,-2.5669,-2.5663,-2.5637,-2.5629,-2.5614,-2.5609,-2.5606,-2.5597,-2.5593,-2.5598,-2.5599,-2.5592,-2.559,-2.5583,-2.5583,-2.5583,-2.5583,0,-2.5813,-2.5794,-2.5786,-2.5763,-2.5758,-2.5756,-2.5736,-2.5732,-2.5718,-2.571,-2.5707,-2.5684,-2.5674,-2.5654,-2.5638,-2.5628,-2.5626,-2.5619,-2.5632,-2.5629,-2.5637,-2.5636,-2.5664,-2.5667,-2.5633,-2.5633,-2.5633,0,-2.5823,-2.582,-2.5798,-2.5793,-2.5783,-2.5774,-2.5767,-2.5747,-2.574,-2.5722,-2.572,-2.5709,-2.5698,-2.5683,-2.5665,-2.5654,-2.5646,-2.5657,-2.5644,-2.565,-2.5645,-2.5645,-2.5645,-2.5659,-2.5659,-2.566,-2.566,0,-2.5843,-2.5835,-2.5825,-2.5814,-2.5806,-2.5795,-2.5783,-2.578,-2.5757,-2.5751,-2.5741,-2.5733,-2.5718,-2.5707,-2.5694,-2.5683,-2.5668,-2.5665,-2.5666,-2.567,-2.5678,-2.5674,-2.5639,-2.5664,-2.5663,-2.5663,-2.5663,-2.5663,-2.5861,-2.5858,-2.5843,-2.5833,-2.5823,-2.5814,-2.5809,-2.5796,-2.5787,-2.5773,-2.5763,-2.5754,-2.574,-2.572,-2.5711,-2.5704,-2.5696,-2.5698,-2.5698,-2.5698,-2.57,-2.5681,-2.5701,-2.5701,-2.5701,-2.5701,-2.5701,0,-2.588,-2.587,-2.5862,-2.5847,-2.584,-2.5829,-2.5817,-2.5811,-2.5804,-2.5792,-2.5783,-2.5773,-2.5764,-2.5747,-2.5736,-2.5734,-2.5727,-2.5732,-2.5731,-2.5729,-2.5708,-2.5708,-2.5738,-2.5738,-2.5738,-2.5738,-2.5738,-2.5738,-2.5889,-2.5884,-2.5875,-2.5865,-2.5855,-2.5847,-2.5841,-2.5833,-2.5823,-2.5813,-2.5805,-2.5795,-2.5782,-2.5771,-2.5762,-2.5757,-2.5754,-2.5761,-2.5754,-2.5734,-2.573,-2.5727,-2.5727,-2.5761,-2.5761,-2.5776,-2.5776,-2.5776]},{"header":{"parameterUnit":"m.s-1","parameterCategory":1,"la1":30.2991,"la2":30.254,"lo1":-89.0895,"lo2":-89.0444,"dy":0.0017,"dx":0.0017,"nx":28,"ny":28,"refTime":"2024-03-06T03:00:00:Z","depth":0,"parameterNumber":3,"parameterNumberName":"V-component_of_WINDS"},"data":[0,0,0,0,0,0,0,0,0,0,0,0,0,0,0,0,0,0,0,0,0,0,0,0,0,0,0,0,0,0,0,0,0,0,0,0,0,0,0,0,0,0,0,0,0,0,0,0,0,0,0,0,0,0,0,0,0,0,1.9612,1.9612,0,1.9616,1.9616,1.9616,1.97,1.9702,1.9704,1.9706,1.9706,1.9704,1.9702,0,0,0,0,0,0,0,0,0,0,0,0,0,1.9673,1.9672,1.9612,1.9612,1.9612,1.9616,1.9616,1.9616,1.9699,1.9702,1.9705,1.9707,1.9707,1.9705,1.9702,0,0,0,0,0,0,0,0,0,0,0,0,0,1.9659,1.9671,1.9612,1.9654,1.9658,1.9616,1.9616,1.9616,1.9699,1.9702,1.9705,1.9708,1.9708,1.9705,1.9702,1.9619,0,0,1.9693,1.9692,0,0,0,0,0,0,0,0,1.9659,1.9656,1.9648,1.9651,1.9655,1.9661,1.9638,1.9617,1.9698,1.9683,1.9706,1.971,1.9688,1.9687,1.9681,1.9619,1.9619,1.9693,1.9691,1.9689,1.9689,0,0,0,0,0,0,0,1.966,1.9657,1.9614,1.9648,1.9652,1.9672,1.9674,1.9635,1.9667,1.9685,1.9691,1.969,1.9691,1.9683,1.9681,1.9619,1.9693,1.969,1.9688,1.9687,1.9492,1.9489,0,0,0,0,0,0,1.9656,1.9657,1.9614,1.9614,1.9666,1.9668,1.967,1.9656,1.9668,1.9673,1.9688,1.9694,1.9687,1.9685,1.9682,1.9587,1.9689,1.9687,1.9685,1.9495,1.9491,1.9487,0,0,0,0,0,0,1.9657,1.9651,1.9613,1.9637,1.9634,1.9664,1.9647,1.9654,1.9647,1.967,1.9676,1.9674,1.9689,1.9686,1.9635,1.9588,1.9685,1.9683,1.9499,1.9494,1.9489,1.9396,0,0,0,0,0,0,1.9658,1.9651,1.962,1.9636,1.9632,1.9567,1.9644,1.9652,1.9642,1.9651,1.9659,1.9664,1.9692,1.9639,1.9632,1.9586,1.968,1.9504,1.9497,1.9491,1.9404,1.9389,1.9376,0,0,0,0,0,1.966,1.9593,1.9618,1.9613,1.9595,1.9564,1.9562,1.9596,1.9638,1.9607,1.9623,1.9664,1.9594,1.9633,1.9626,1.9578,1.9507,1.9499,1.9491,1.941,1.9391,1.9376,0,0,0,0,0,0,1.9569,1.9595,1.9624,1.956,1.9559,1.9578,1.954,1.9576,1.9562,1.9571,1.9613,1.9614,1.9557,1.9562,1.9605,1.95,1.9558,1.9548,1.9498,1.9481,1.9467,1.9467,1.9678,0,0,0,0,0,1.9542,1.9516,1.954,1.9481,1.9479,1.9509,1.9497,1.9524,1.9525,1.9525,1.9536,1.9534,1.9513,1.9497,1.9478,1.9405,1.9408,1.9369,1.9355,1.9343,1.9335,1.9298,1.9281,1.9462,1.9462,1.9463,0,0,1.9484,1.9496,1.9476,1.9463,1.9465,1.9437,1.9509,1.9475,1.9454,1.9519,1.9473,1.9481,1.9481,1.9419,1.9393,1.9422,1.9285,1.9333,1.9324,1.9322,1.9288,1.9271,1.9256,1.9457,1.9458,1.9459,0,0,1.9366,1.9371,1.9324,1.9326,1.933,1.9351,1.9339,1.9353,1.9362,1.9316,1.9365,1.934,1.9301,1.93,1.9295,1.9178,1.9215,1.917,1.9097,1.9061,1.9047,1.9034,1.8994,1.8979,1.9161,1.9161,1.9161,0,1.9294,1.9254,1.9294,1.9259,1.9252,1.9311,1.9263,1.9262,1.9259,1.9252,1.9286,1.924,1.9244,1.9184,1.9155,1.9148,1.9137,1.917,1.9046,1.9034,1.9023,1.8985,1.8969,1.9156,1.9156,1.9157,1.9158,0,1.9166,1.9138,1.9099,1.9097,1.9085,1.9043,1.9076,1.906,1.9088,1.9105,1.9058,1.9066,1.905,1.9038,1.9064,1.8981,1.9,1.9039,1.9098,1.8999,1.8964,1.895,1.9148,1.915,1.9152,1.9153,0,0,1.8989,1.9012,1.8997,1.8998,1.9007,1.8986,1.8947,1.8933,1.8919,1.8914,1.8883,1.885,1.8887,1.888,1.8907,1.8875,1.8783,1.8918,1.8919,1.8894,1.8694,1.8665,1.8647,1.8808,1.8806,1.8804,1.8694,0,1.8876,1.8813,1.8848,1.8779,1.8754,1.8811,1.8777,1.8779,1.8794,1.8774,1.8791,1.8767,1.8817,1.8814,1.8785,1.8801,1.8744,1.8809,1.8779,1.8778,1.8778,1.8629,1.8598,1.8494,1.8681,1.8678,1.8677,0,1.8735,1.8728,1.8657,1.8674,1.8664,1.8633,1.8625,1.8605,1.8609,1.8622,1.8616,1.8651,1.8614,1.8672,1.8621,1.8665,1.8655,1.8661,1.8658,1.8657,1.8722,1.8625,1.8462,1.8447,1.8655,1.8657,1.8658,0,1.8615,1.8587,1.8542,1.854,1.8558,1.8535,1.8541,1.8548,1.8538,1.853,1.8525,1.8511,1.8504,1.8493,1.8524,1.8563,1.8469,1.853,1.8479,1.8478,1.8457,1.8458,1.8291,1.8449,1.8449,1.8449,1.845,0,1.8486,1.844,1.8489,1.846,1.8411,1.8453,1.8403,1.8415,1.842,1.8395,1.8443,1.8418,1.846,1.8439,1.8462,1.8417,1.8413,1.8423,1.843,1.8419,1.8418,1.8414,1.8422,1.8445,1.8446,1.8447,1.8448,0,1.8343,1.8374,1.8328,1.835,1.8354,1.8317,1.8335,1.8309,1.8329,1.8296,1.8291,1.8321,1.8299,1.8329,1.8309,1.8325,1.8264,1.8281,1.8263,1.8268,1.8216,1.8221,1.8042,1.8021,1.819,1.8189,1.8187,0,1.8259,1.8226,1.8244,1.8232,1.8236,1.8215,1.8206,1.8245,1.8234,1.8237,1.8211,1.8193,1.8182,1.8144,1.8163,1.8149,1.8167,1.8105,1.8165,1.8156,1.8167,1.8169,1.8167,1.8093,1.809,1.8089,1.8087,0,1.8107,1.8124,1.811,1.8102,1.809,1.8085,1.8083,1.807,1.8112,1.8096,1.8076,1.8067,1.8048,1.803,1.8021,1.8027,1.8064,1.8069,1.8056,1.8045,1.8037,1.8042,1.823,1.8073,1.8074,1.8075,1.8076,1.8077,1.7992,1.7966,1.7975,1.7959,1.7962,1.796,1.7938,1.7955,1.7939,1.7929,1.7952,1.7926,1.7931,1.7924,1.7925,1.7905,1.7931,1.7913,1.7909,1.7904,1.7897,1.804,1.7903,1.7903,1.7904,1.7904,1.7904,0,1.7843,1.7853,1.7837,1.7834,1.7821,1.7859,1.7859,1.7846,1.7822,1.7825,1.7813,1.779,1.7774,1.7792,1.7779,1.7759,1.7776,1.7754,1.7757,1.7757,1.7873,1.7885,1.7741,1.7741,1.7741,1.7741,1.7741,1.7741,1.7764,1.7723,1.7741,1.7702,1.7712,1.7688,1.7685,1.7683,1.7686,1.7658,1.7646,1.7658,1.7667,1.7656,1.7642,1.7648,1.7641,1.7614,1.7626,1.7733,1.7749,1.7764,1.7777,1.7612,1.7612,1.7512,1.7511,1.7511]}]]